sim
Sign-in with your pilot id or email,
or register
Callsign
Passwort

Schedule Details

Flight Number: EWG1700 (1)
Departure: Munich Airport (EDDM) at 16:20
Arrival: Thessaloniki International Airport (LGTS) at 18:20
Route: Eurowings Passenger Schedule. Enter filed route here before submitting Pirep.

Weather Information
Getting current METAR information for EDDM 192250Z 05006KT CAVOK 11/01 Q1028 NOSIG
Getting current METAR information for LGTS 192250Z 15005KT 9999 FEW020 13/09 Q1023 NOSIG

Schedule Frequency

Route Map